Simultaneous Nadir Overpasses (SNOs) Predictions

Prediction of SNOs between GOES-18 and NOAA-21 Satellite Orbit:

Table of predicted SNOs for the next 14.0 days since TLE Epoch: 2/3/2024
Index Date Time (GOES-18) GOES-18 Lat,Lon NOAA-21 Lat,Lon Distance(km) Time Diff (sec)
1 02/03/2024 10:25:49 -0.01,-137.00 -0.37,-135.29 194.40 80
2 02/04/2024 22:45:04 0.02,-136.98 -0.77,-140.59 411.07 80
3 02/05/2024 22:28:58 0.02,-136.97 0.20,-136.05 104.89 80
4 02/07/2024 10:48:04 -0.02,-136.96 0.94,-141.32 495.89 80
5 02/08/2024 10:31:58 -0.02,-136.95 -0.04,-136.77 19.71 80
6 02/10/2024 22:32:26 0.02,-136.90 -0.10,-137.53 71.68 80
7 02/11/2024 22:16:20 0.02,-136.88 0.88,-132.99 443.71 80
8 02/13/2024 10:35:25 -0.02,-136.86 0.31,-138.24 157.74 80
9 02/14/2024 10:19:20 -0.02,-136.84 -0.74,-133.71 357.35 80
10 02/15/2024 22:38:33 0.02,-136.80 -0.50,-138.99 250.30 80
11 02/16/2024 22:22:28 0.03,-136.78 0.55,-134.46 264.31 80
